Wind_Speed
31 29 29 30 30 30 31 37 34 35 40 45 47 45 48 50 55 61 67 73 63 61 49 53 46 35 39 33 6 22 23 20 34 33 53 57 45 61 63 62 59 58 54 46 56 55 52
34 32 28 30 30 32 31 36 34 33 39 43 45 45 46 49 54 59 66 70 61 57 49 52 47 30 33 27 19 24 18 26 27 37 49 52 39 51 46 65 63 52 46 63 36 52 59
35 36 33 32 29 31 33 33 36 33 38 40 44 43 46 48 53 59 64 67 57 55 50 50 49 26 26 23 21 12 21 24 32 35 46 50 47 51 51 69 65 54 44 42 57 53 51
37 37 38 34 31 30 33 33 35 33 36 38 43 41 44 47 52 58 62 65 56 54 50 50 49 24 21 25 23 9 23 30 33 41 47 53 42 41 50 61 63 59 31 45 31 48 57
40 39 39 36 34 31 33 34 32 32 35 37 41 40 43 46 50 57 61 63 53 52 48 49 49 22 17 19 24 21 21 38 44 39 35 54 35 39 52 59 62 54 39 57 56 45 39
43 42 40 36 35 32 33 33 32 31 33 36 38 40 41 44 49 54 59 60 53 49 46 49 44 25 15 15 10 12 24 41 39 37 40 49 33 39 39 48 49 34 37 51 55 46 47
48 43 41 36 35 34 33 33 32 29 31 34 36 39 39 42 48 52 57 59 50 44 44 48 42 26 18 14 16 9 29 34 29 47 32 41 38 43 30 33 52 35 35 36 46 49 48
60 48 43 37 30 36 35 33 31 27 30 31 33 36 37 40 46 50 55 55 46 41 40 44 40 27 17 16 9 24 40 35 42 46 39 35 33 35 38 35 52 49 36 36 47 37 41
62 61 45 38 30 36 34 34 30 26 30 29 31 34 35 37 44 49 53 53 45 35 36 40 37 28 16 11 20 41 35 33 50 37 31 29 26 32 39 38 43 51 38 37 28 23 31
68 59 56 42 33 33 34 34 30 24 28 28 28 32 33 34 41 47 51 53 42 32 30 33 33 29 13 14 32 40 34 35 31 30 22 25 23 36 29 38 36 42 46 44 33 28 33
73 66 64 44 34 34 34 34 31 22 28 26 26 30 31 31 38 44 49 51 41 31 26 31 29 27 13 11 36 28 34 37 26 32 30 26 21 24 31 35 38 37 34 33 36 31 36
75 74 61 47 42 33 29 37 32 21 27 24 25 27 28 29 35 41 46 47 40 28 17 24 21 20 15 38 32 27 31 38 39 30 28 24 21 18 20 33 32 31 29 26 34 38 35
88 73 66 56 42 32 28 36 32 21 25 22 23 24 24 26 32 38 43 44 39 24 16 19 19 16 16 49 34 25 31 31 23 18 26 25 20 18 16 24 33 32 24 27 25 27 32
86 76 71 62 44 33 25 33 33 22 24 22 21 22 21 22 29 35 40 42 41 30 9 11 16 10 20 51 39 27 28 22 17 18 19 20 18 20 20 19 24 28 26 25 28 28 32
73 71 68 63 48 38 23 30 33 23 23 22 19 20 17 19 24 31 37 41 42 30 8 5 9 6 16 37 41 34 24 15 11 14 11 11 13 15 17 15 21 26 29 28 29 31 27
68 65 61 60 53 42 27 26 30 25 23 20 17 18 14 16 21 28 33 38 41 30 5 2 3 5 14 24 31 28 24 22 14 15 12 11 14 15 16 18 19 23 25 26 28 29 29
63 64 60 59 53 39 31 27 26 25 24 19 17 16 11 13 18 25 30 36 39 35 11 2 3 6 13 19 22 19 19 24 15 11 11 9 11 14 17 20 19 21 23 23 23 28 27
63 64 61 61 59 41 31 26 24 26 24 19 16 13 8 10 15 22 27 32 36 37 23 4 8 8 14 18 14 11 14 16 12 11 13 9 8 8 16 19 18 18 21 23 25 24 26
65 62 62 63 57 37 30 29 27 27 25 20 16 14 7 8 12 18 22 28 32 35 27 7 12 11 13 14 21 20 15 17 14 14 10 12 12 12 9 16 21 21 18 20 21 21 23
64 62 65 64 58 42 38 32 29 26 26 18 15 12 9 7 8 13 18 23 29 32 30 22 7 18 16 17 16 20 23 24 24 19 17 13 12 13 13 10 11 13 18 19 24 26 19
63 63 64 66 51 41 33 32 28 29 26 19 14 11 10 6 6 10 13 20 25 30 30 27 16 13 19 17 20 19 19 21 24 24 24 20 21 17 18 15 14 15 18 21 25 18 24
59 62 63 61 48 36 34 32 29 32 26 21 15 12 11 8 5 7 11 16 21 27 28 27 20 8 19 22 19 21 22 21 19 24 25 23 21 23 23 21 17 17 18 19 18 18 21
57 63 54 55 44 30 34 28 31 33 29 24 17 14 11 7 4 5 9 12 18 23 27 29 26 14 10 19 22 22 21 21 23 20 22 25 24 23 22 19 19 20 18 20 20 20 22
61 56 67 52 49 30 33 31 33 35 31 28 18 14 10 6 4 4 7 9 14 20 24 27 28 20 10 16 23 22 22 21 21 24 23 25 27 27 26 22 23 22 21 22 22 23 25
66 64 53 56 48 40 33 34 32 38 33 27 21 14 12 9 6 4 6 6 11 15 21 23 25 26 16 10 18 23 23 23 22 22 23 24 25 30 31 29 26 24 22 23 25 27 27
66 51 58 56 40 41 38 33 29 31 36 26 19 15 13 10 7 4 5 6 7 13 16 20 22 26 24 15 14 20 21 25 25 23 21 21 22 23 27 29 27 29 25 26 27 30 29
60 57 57 51 38 40 41 36 28 31 33 25 20 17 14 11 7 7 6 6 6 9 13 17 20 23 24 21 14 12 20 22 23 24 23 23 24 23 24 26 30 33 26 28 30 32 31
65 54 59 37 33 40 37 33 31 30 31 26 23 17 12 11 9 9 7 8 7 8 10 13 19 18 21 22 19 11 14 17 20 21 21 25 26 26 28 28 28 29 26 28 29 29 29
64 54 58 51 39 38 38 34 30 32 29 25 18 14 11 10 9 9 9 8 8 8 9 10 13 15 18 20 22 16 13 13 21 20 20 21 23 26 27 29 29 30 29 29 29 30 30
Wind_Direction
293 292 294 296 301 303 308 309 317 324 324 326 328 329 333 338 344 347 349 348 350 343 343 347 348 337 349 355 275 213 202 183 192 191 196 196 197 199 200 194 191 199 194 194 210 213 212
292 290 289 293 297 301 305 307 313 324 323 326 327 329 332 339 344 348 350 349 350 343 342 347 350 341 348 349 349 216 205 196 178 190 191 190 193 195 192 199 194 196 200 193 205 204 211
294 290 290 290 293 299 303 308 312 321 321 325 328 330 333 340 345 350 350 350 349 345 342 347 350 334 344 345 5 233 207 191 181 165 187 191 192 195 193 194 191 189 190 203 211 211 213
294 293 289 291 292 296 300 305 310 317 320 324 327 330 332 340 347 350 351 350 349 346 342 345 350 337 339 346 342 348 204 189 187 158 183 189 188 187 189 187 191 184 182 205 183 199 209
290 292 290 292 293 295 297 302 308 314 319 321 326 329 332 341 348 351 351 351 348 347 343 347 350 344 341 346 336 339 189 189 189 178 168 186 181 185 193 191 194 202 209 195 196 190 193
286 287 289 290 289 290 294 299 305 310 315 318 325 328 332 342 348 351 351 352 348 348 345 349 354 355 344 337 321 291 189 175 186 173 150 174 180 184 189 197 202 201 204 204 206 203 204
283 283 283 285 286 288 292 295 300 304 311 315 324 326 332 342 347 350 351 354 350 349 347 352 2 3 337 339 337 198 176 155 151 173 156 174 179 185 185 184 203 212 202 204 203 202 201
291 279 278 279 287 285 288 292 295 299 306 312 321 325 333 342 346 348 352 354 354 353 349 352 2 6 26 356 6 159 161 154 152 156 161 161 177 182 191 191 202 210 198 190 202 207 204
291 285 274 272 271 284 284 288 288 295 300 309 318 324 334 343 346 346 354 356 355 354 351 352 5 18 11 15 135 144 143 151 162 148 149 152 178 174 185 190 200 214 214 199 196 207 201
288 281 276 266 264 278 280 286 286 289 295 305 315 323 333 343 347 347 355 356 354 359 353 1 9 17 38 116 145 132 159 159 167 180 149 160 155 179 188 197 203 208 213 219 200 205 217
286 279 275 260 255 262 273 280 284 282 290 302 310 319 332 343 346 346 355 355 357 2 354 6 10 28 77 121 147 133 133 135 142 185 183 156 152 165 194 200 204 209 214 223 221 220 222
276 277 268 254 246 262 272 277 282 273 283 298 307 314 330 343 346 348 353 355 356 1 359 5 15 42 85 158 155 136 137 130 127 143 174 164 146 165 180 196 198 205 210 214 214 226 229
270 267 264 254 238 247 261 270 277 263 276 290 305 312 328 344 345 348 353 357 355 354 9 6 12 54 105 167 167 152 147 141 135 127 139 149 159 169 180 190 203 210 215 210 214 221 224
258 261 257 251 228 240 248 263 270 255 269 282 300 314 326 344 346 347 354 1 0 358 -0 15 9 65 118 167 169 170 155 134 130 130 143 153 165 171 181 195 201 206 209 208 211 221 228
250 248 245 242 218 224 236 253 262 252 260 276 292 312 324 341 346 348 357 3 3 359 15 20 17 60 121 163 189 183 182 167 161 157 153 170 174 180 188 194 201 200 204 207 212 218 223
232 230 227 230 215 219 229 237 252 255 253 270 283 307 321 337 346 347 359 5 3 3 354 301 42 94 144 143 170 190 196 188 191 189 198 207 203 205 201 198 203 206 213 217 221 228 232
208 213 215 217 209 212 218 230 235 254 245 261 277 296 315 334 347 347 359 4 4 6 357 264 195 142 163 160 156 162 185 198 215 211 204 216 210 214 212 215 219 213 212 219 221 222 226
196 198 207 204 203 204 209 219 225 250 238 253 268 282 298 331 346 348 359 4 6 6 5 234 221 180 178 188 192 196 196 198 205 213 216 205 208 220 216 212 211 226 231 227 224 223 227
192 190 204 199 200 193 203 218 225 235 230 242 257 267 274 322 346 345 2 4 8 4 7 349 223 216 208 203 212 211 223 215 208 209 237 225 224 233 228 218 224 228 228 221 227 232 227
184 189 202 198 195 193 201 216 219 223 220 231 241 250 261 303 341 348 2 7 11 6 9 6 272 223 219 214 209 208 214 219 224 226 246 244 238 233 230 221 233 228 225 223 232 235 238
178 192 198 197 189 192 201 207 214 215 210 219 234 242 250 281 323 348 2 10 15 7 9 12 354 234 227 221 218 215 214 215 225 228 239 241 243 244 241 240 240 244 241 237 239 250 248
176 194 199 190 182 193 203 204 208 203 205 210 227 226 247 262 303 338 354 10 17 12 9 14 10 309 235 227 226 226 226 226 229 228 238 244 238 245 247 256 251 246 245 246 248 249 254
177 195 195 195 185 194 201 195 203 200 202 205 217 216 235 243 273 325 337 11 24 19 11 13 15 357 267 236 227 226 231 233 236 231 228 233 237 240 241 254 259 254 250 248 250 257 263
185 196 199 196 194 192 195 204 206 205 197 200 209 208 225 235 242 301 319 7 32 21 8 13 18 11 331 248 236 228 229 234 238 239 239 240 239 241 241 247 255 254 251 256 261 266 271
187 199 187 197 185 193 187 196 198 197 199 200 203 208 226 218 228 280 308 349 22 24 13 12 18 14 7 310 243 233 230 232 235 238 242 245 245 243 248 256 260 254 260 261 265 268 271
190 189 197 194 189 189 183 190 197 207 207 194 193 199 216 213 225 251 293 320 4 25 15 10 17 15 13 351 279 244 234 235 235 238 243 247 250 252 250 255 261 260 260 258 260 264 266
187 193 192 186 189 191 188 189 194 192 189 189 194 206 215 218 226 251 281 304 327 4 21 16 19 17 6 9 348 278 241 239 239 238 242 248 251 253 254 257 261 262 263 264 262 269 269
192 185 186 177 190 190 185 193 198 190 180 185 193 199 207 215 221 241 265 290 306 328 3 16 19 21 6 9 2 312 269 246 245 242 238 245 247 251 254 257 257 261 260 262 265 265 267
190 186 190 184 190 187 191 194 190 201 182 181 185 194 202 217 224 240 263 283 296 305 336 7 17 19 4 0 360 352 290 253 248 250 250 253 257 256 257 261 262 264 266 265 266 266 267
Height
5792 5789 5786 5784 5781 5777 5772 5770 5762 5757 5752 5747 5740 5730 5721 5710 5698 5685 5671 5655 5642 5628 5616 5607 5595 5587 5578 5570 5566 5566 5570 5576 5580 5587 5599 5613 5626 5639 5652 5669 5681 5692 5704 5717 5724 5729 5739
5786 5783 5780 5777 5775 5773 5767 5765 5759 5751 5747 5743 5735 5727 5717 5706 5694 5681 5667 5652 5639 5626 5613 5604 5594 5585 5578 5571 5564 5566 5570 5576 5580 5588 5599 5613 5625 5639 5651 5664 5675 5692 5699 5708 5705 5719 5729
5781 5778 5775 5772 5769 5766 5764 5758 5756 5750 5742 5738 5732 5722 5714 5703 5691 5677 5663 5649 5636 5623 5612 5602 5592 5582 5577 5573 5566 5564 5570 5575 5581 5588 5598 5609 5621 5631 5644 5657 5672 5682 5695 5706 5711 5716 5724
5773 5772 5770 5767 5763 5761 5758 5753 5750 5745 5738 5733 5728 5718 5711 5700 5687 5674 5660 5646 5634 5622 5611 5600 5590 5580 5576 5572 5566 5563 5568 5574 5578 5584 5597 5611 5622 5632 5644 5657 5669 5674 5684 5696 5696 5707 5716
5768 5765 5763 5762 5759 5757 5753 5748 5745 5741 5734 5729 5723 5715 5707 5697 5684 5671 5657 5645 5632 5622 5610 5599 5588 5579 5575 5571 5567 5563 5565 5571 5576 5584 5596 5614 5623 5633 5645 5654 5661 5670 5679 5685 5693 5706 5715
5762 5759 5757 5755 5752 5751 5748 5743 5741 5737 5729 5726 5719 5712 5704 5694 5682 5668 5656 5643 5631 5621 5609 5599 5587 5580 5574 5570 5567 5565 5564 5573 5580 5589 5600 5616 5625 5633 5643 5650 5658 5672 5679 5688 5696 5704 5711
5754 5751 5749 5748 5746 5746 5742 5738 5736 5732 5725 5722 5715 5709 5701 5691 5680 5667 5655 5643 5632 5621 5607 5598 5586 5578 5572 5569 5564 5563 5567 5578 5586 5595 5606 5617 5625 5637 5649 5658 5668 5672 5678 5688 5696 5701 5708
5746 5743 5741 5741 5739 5739 5736 5732 5731 5727 5721 5717 5712 5706 5698 5689 5678 5665 5653 5641 5628 5620 5609 5600 5589 5579 5574 5569 5565 5568 5577 5586 5591 5601 5610 5621 5629 5639 5646 5653 5657 5664 5672 5683 5692 5701 5707
5733 5734 5734 5733 5733 5732 5730 5727 5724 5721 5717 5714 5709 5703 5695 5686 5676 5664 5653 5641 5628 5619 5612 5602 5592 5583 5577 5573 5574 5582 5589 5594 5600 5607 5616 5624 5631 5638 5645 5651 5661 5667 5673 5683 5692 5699 5700
5719 5723 5722 5724 5725 5725 5723 5722 5718 5716 5713 5710 5705 5699 5692 5684 5676 5664 5653 5640 5629 5621 5614 5606 5597 5588 5584 5579 5582 5590 5596 5605 5610 5614 5618 5627 5634 5641 5648 5655 5661 5667 5674 5678 5686 5691 5697
5707 5708 5711 5714 5715 5716 5716 5715 5712 5709 5708 5705 5702 5696 5690 5682 5673 5664 5654 5640 5630 5622 5616 5609 5602 5595 5590 5590 5594 5596 5601 5608 5613 5618 5628 5632 5638 5644 5650 5654 5658 5666 5673 5679 5686 5691 5693
5692 5692 5699 5701 5702 5705 5708 5709 5706 5704 5702 5701 5698 5693 5687 5680 5672 5663 5654 5641 5632 5626 5619 5615 5608 5603 5599 5598 5599 5603 5607 5613 5619 5627 5632 5636 5640 5645 5648 5655 5662 5668 5673 5679 5685 5687 5694
5667 5676 5683 5687 5691 5692 5698 5701 5699 5698 5697 5696 5693 5689 5684 5678 5671 5662 5653 5642 5634 5626 5621 5618 5614 5610 5608 5607 5608 5611 5615 5620 5626 5631 5634 5639 5643 5648 5651 5656 5661 5667 5671 5677 5681 5687 5694
5638 5651 5663 5672 5678 5680 5687 5692 5692 5691 5691 5691 5689 5685 5681 5676 5669 5661 5653 5644 5634 5624 5622 5620 5617 5615 5615 5617 5616 5618 5622 5627 5630 5634 5639 5642 5646 5649 5652 5656 5661 5666 5671 5676 5682 5687 5692
5601 5623 5642 5655 5664 5670 5676 5682 5685 5684 5685 5686 5684 5681 5677 5673 5667 5661 5654 5644 5636 5626 5622 5622 5621 5619 5619 5622 5622 5624 5629 5631 5635 5637 5641 5643 5646 5649 5653 5657 5661 5664 5668 5674 5679 5683 5686
5574 5599 5621 5638 5648 5657 5667 5671 5677 5678 5680 5681 5680 5677 5674 5670 5665 5659 5653 5645 5636 5627 5622 5622 5623 5622 5622 5624 5629 5631 5633 5635 5639 5640 5642 5645 5648 5650 5653 5656 5660 5663 5668 5673 5677 5680 5685
5550 5577 5602 5621 5632 5645 5655 5660 5668 5671 5674 5675 5675 5673 5670 5667 5662 5658 5651 5645 5636 5627 5623 5623 5623 5624 5625 5627 5630 5633 5636 5638 5639 5641 5642 5643 5646 5649 5651 5655 5659 5662 5665 5670 5674 5677 5681
5535 5563 5588 5605 5616 5635 5644 5651 5659 5664 5667 5669 5670 5668 5666 5664 5660 5655 5649 5644 5638 5629 5623 5621 5622 5625 5626 5628 5630 5632 5634 5636 5638 5640 5642 5644 5646 5647 5649 5651 5656 5660 5664 5666 5670 5675 5678
5530 5555 5578 5593 5609 5624 5634 5640 5649 5655 5659 5663 5664 5663 5662 5660 5657 5653 5649 5644 5638 5629 5623 5619 5620 5623 5625 5627 5629 5631 5633 5635 5637 5639 5641 5643 5645 5646 5649 5652 5654 5656 5660 5664 5667 5670 5674
5521 5546 5565 5581 5598 5615 5624 5631 5640 5647 5652 5656 5658 5658 5658 5657 5654 5651 5648 5644 5638 5630 5624 5619 5618 5619 5621 5624 5626 5628 5630 5633 5635 5638 5640 5642 5644 5645 5648 5651 5653 5655 5657 5660 5662 5665 5670
5519 5540 5556 5570 5591 5605 5615 5624 5632 5639 5645 5650 5652 5653 5653 5653 5651 5648 5646 5642 5637 5630 5625 5620 5615 5616 5619 5621 5624 5626 5628 5630 5633 5635 5637 5640 5642 5644 5645 5648 5651 5653 5655 5657 5658 5663 5663
5517 5535 5551 5568 5584 5597 5607 5615 5625 5633 5638 5643 5646 5647 5648 5649 5647 5645 5644 5641 5637 5631 5626 5620 5615 5612 5614 5616 5620 5622 5625 5627 5629 5631 5634 5635 5638 5640 5642 5644 5647 5649 5651 5653 5656 5658 5659
5513 5529 5548 5566 5583 5592 5600 5609 5619 5626 5632 5636 5639 5642 5643 5644 5643 5642 5642 5639 5636 5631 5626 5621 5615 5611 5610 5615 5615 5618 5621 5623 5626 5627 5630 5633 5635 5636 5638 5640 5642 5646 5648 5650 5651 5653 5653
5505 5522 5534 5546 5567 5585 5594 5604 5612 5619 5626 5630 5634 5637 5639 5639 5639 5639 5639 5637 5634 5630 5626 5621 5615 5612 5611 5608 5611 5615 5617 5620 5622 5624 5626 5628 5630 5633 5635 5636 5639 5641 5643 5644 5645 5647 5647
5497 5514 5531 5547 5561 5573 5586 5597 5605 5612 5619 5625 5629 5632 5634 5635 5635 5636 5635 5635 5632 5629 5625 5621 5616 5612 5608 5607 5607 5609 5612 5615 5618 5620 5623 5624 5626 5628 5630 5632 5634 5635 5637 5638 5639 5641 5642
5496 5513 5531 5550 5563 5570 5579 5589 5600 5607 5613 5620 5623 5626 5629 5631 5632 5633 5632 5632 5631 5628 5625 5621 5617 5612 5609 5607 5604 5605 5607 5609 5613 5616 5619 5620 5621 5624 5624 5626 5627 5629 5631 5633 5633 5635 5637
5494 5511 5528 5545 5558 5568 5575 5583 5595 5602 5608 5614 5618 5622 5624 5626 5627 5629 5629 5629 5628 5627 5624 5620 5617 5613 5610 5606 5603 5602 5603 5605 5609 5612 5614 5615 5616 5618 5619 5619 5622 5624 5626 5626 5627 5631 5628
5491 5507 5525 5538 5552 5564 5570 5579 5589 5597 5602 5608 5613 5617 5618 5621 5623 5624 5625 5625 5625 5625 5623 5621 5617 5613 5610 5606 5603 5602 5601 5602 5604 5605 5609 5609 5610 5612 5613 5614 5617 5617 5619 5620 5619 5619 5619
5486 5502 5516 5525 5540 5554 5565 5575 5584 5592 5598 5603 5608 5611 5614 5617 5619 5620 5621 5622 5622 5622 5621 5619 5617 5614 5609 5607 5604 5600 5598 5600 5599 5601 5603 5605 5607 5605 5608 5609 5609 5610 5611 5611 5610 5610 5610